QPF
0.00 0.00 0.00 0.00 0.00 0.00 0.00 0.00 0.00 0.00 0.00 0.00 0.00 0.00 0.00 0.00 0.00 0.01 0.00 0.00 0.00 0.01 0.01 0.02 0.02 0.02 0.02 0.02 0.03 0.04 0.05 0.05 0.05 0.04 0.04 0.03 0.03 0.02 0.01 0.01 0.01 0.01 0.01 0.02 0.02 0.02 0.03 0.02 0.01
0.00 0.00 0.00 0.00 0.00 0.00 0.00 0.00 0.00 0.00 0.00 0.00 0.00 0.00 0.00 0.00 0.00 0.00 0.01 0.00 0.00 0.00 0.00 0.01 0.02 0.03 0.03 0.03 0.03 0.05 0.05 0.06 0.06 0.05 0.04 0.04 0.03 0.03 0.02 0.02 0.01 0.01 0.01 0.01 0.01 0.02 0.02 0.02 0.01
0.01 0.01 0.01 0.01 0.01 0.00 0.00 0.00 0.00 0.00 0.00 0.00 0.00 0.00 0.00 0.00 0.00 0.00 0.01 0.00 0.00 0.00 0.00 0.01 0.01 0.02 0.03 0.03 0.03 0.03 0.04 0.05 0.05 0.04 0.04 0.03 0.03 0.03 0.02 0.02 0.02 0.02 0.02 0.01 0.01 0.01 0.01 0.01 0.01
0.02 0.02 0.01 0.01 0.01 0.00 0.00 0.00 0.00 0.00 0.00 0.00 0.00 0.00 0.00 0.00 0.01 0.00 0.00 0.00 0.00 0.00 0.01 0.01 0.02 0.02 0.03 0.03 0.02 0.02 0.03 0.04 0.04 0.04 0.03 0.03 0.02 0.02 0.02 0.02 0.02 0.02 0.02 0.02 0.02 0.02 0.02 0.01 0.01
0.01 0.01 0.02 0.01 0.00 0.00 0.00 0.00 0.00 0.00 0.00 0.00 0.00 0.00 0.00 0.00 0.00 0.00 0.00 0.00 0.00 0.01 0.01 0.02 0.02 0.02 0.03 0.03 0.02 0.02 0.03 0.03 0.04 0.04 0.03 0.02 0.02 0.02 0.01 0.01 0.01 0.01 0.01 0.01 0.02 0.02 0.01 0.01 0.01
0.01 0.01 0.01 0.01 0.00 0.00 0.00 0.00 0.00 0.00 0.00 0.00 0.00 0.00 0.01 0.00 0.00 0.00 0.00 0.00 0.00 0.01 0.01 0.02 0.03 0.03 0.03 0.03 0.02 0.02 0.02 0.03 0.03 0.03 0.02 0.02 0.02 0.01 0.01 0.01 0.01 0.01 0.01 0.01 0.01 0.01 0.01 0.01 0.01
0.01 0.01 0.01 0.01 0.00 0.01 0.01 0.01 0.01 0.01 0.01 0.00 0.00 0.00 0.01 0.01 0.00 0.01 0.01 0.00 0.00 0.00 0.01 0.02 0.03 0.04 0.03 0.02 0.02 0.02 0.02 0.02 0.03 0.02 0.02 0.03 0.02 0.01 0.01 0.01 0.02 0.02 0.01 0.01 0.01 0.02 0.01 0.01 0.01
0.01 0.01 0.01 0.01 0.01 0.01 0.01 0.01 0.01 0.01 0.03 0.01 0.01 0.01 0.01 0.01 0.00 0.00 0.01 0.00 0.00 0.01 0.01 0.02 0.03 0.04 0.04 0.03 0.02 0.01 0.01 0.01 0.02 0.02 0.02 0.03 0.03 0.02 0.01 0.01 0.01 0.02 0.01 0.01 0.01 0.02 0.02 0.01 0.01
0.01 0.01 0.01 0.01 0.01 0.01 0.00 0.01 0.01 0.01 0.04 0.03 0.03 0.02 0.01 0.01 0.01 0.01 0.01 0.00 0.01 0.02 0.02 0.03 0.03 0.04 0.05 0.04 0.02 0.02 0.01 0.01 0.01 0.02 0.02 0.02 0.02 0.01 0.01 0.01 0.01 0.02 0.02 0.02 0.02 0.03 0.03 0.03 0.01
0.01 0.01 0.00 0.00 0.00 0.00 0.00 0.00 0.01 0.02 0.04 0.02 0.02 0.02 0.01 0.02 0.02 0.01 0.00 0.00 0.01 0.01 0.02 0.03 0.04 0.04 0.05 0.05 0.04 0.03 0.02 0.01 0.01 0.01 0.02 0.02 0.02 0.02 0.00 0.00 0.01 0.02 0.02 0.02 0.02 0.02 0.02 0.02 0.02
0.01 0.00 0.00 0.00 0.00 0.00 0.00 0.00 0.00 0.02 0.03 0.02 0.01 0.01 0.01 0.03 0.02 0.01 0.00 0.00 0.01 0.01 0.02 0.03 0.04 0.06 0.07 0.07 0.05 0.04 0.03 0.02 0.01 0.01 0.02 0.02 0.03 0.02 0.01 0.00 0.01 0.01 0.01 0.02 0.02 0.02 0.02 0.02 0.02
0.00 0.00 0.00 0.00 0.00 0.00 0.00 0.00 0.00 0.00 0.01 0.01 0.00 0.01 0.01 0.02 0.03 0.01 0.00 0.00 0.00 0.01 0.02 0.03 0.04 0.06 0.07 0.08 0.07 0.06 0.03 0.02 0.02 0.02 0.01 0.03 0.03 0.03 0.01 0.01 0.00 0.01 0.01 0.01 0.02 0.03 0.03 0.03 0.02
0.01 0.00 0.00 0.00 0.00 0.00 0.00 0.00 0.00 0.00 0.00 0.00 0.00 0.00 0.00 0.01 0.02 0.01 0.00 0.00 0.01 0.01 0.01 0.03 0.04 0.05 0.07 0.10 0.09 0.06 0.05 0.02 0.02 0.02 0.02 0.02 0.03 0.04 0.04 0.03 0.01 0.01 0.00 0.01 0.01 0.01 0.02 0.02 0.03
0.01 0.01 0.00 0.00 0.00 0.00 0.00 0.00 0.00 0.00 0.00 0.00 0.00 0.00 0.01 0.01 0.01 0.01 0.01 0.00 0.01 0.01 0.02 0.02 0.04 0.06 0.07 0.09 0.09 0.07 0.04 0.04 0.03 0.02 0.02 0.02 0.02 0.03 0.05 0.06 0.05 0.02 0.01 0.01 0.01 0.01 0.02 0.02 0.02
0.01 0.01 0.01 0.00 0.00 0.00 0.00 0.00 0.00 0.00 0.00 0.00 0.00 0.00 0.01 0.01 0.01 0.01 0.02 0.01 0.00 0.01 0.01 0.02 0.04 0.05 0.07 0.10 0.09 0.08 0.06 0.04 0.03 0.03 0.02 0.03 0.02 0.02 0.02 0.03 0.03 0.02 0.01 0.01 0.01 0.01 0.01 0.01 0.02
0.01 0.01 0.01 0.01 0.00 0.00 0.01 0.00 0.00 0.00 0.00 0.00 0.00 0.00 0.00 0.00 0.01 0.01 0.01 0.01 0.01 0.01 0.02 0.03 0.04 0.05 0.07 0.10 0.11 0.09 0.06 0.05 0.04 0.02 0.02 0.02 0.02 0.03 0.02 0.02 0.01 0.01 0.01 0.01 0.01 0.01 0.01 0.01 0.01
0.01 0.01 0.01 0.01 0.01 0.01 0.01 0.00 0.00 0.00 0.00 0.00 0.00 0.00 0.00 0.00 0.00 0.00 0.01 0.01 0.01 0.01 0.02 0.04 0.05 0.05 0.07 0.10 0.13 0.11 0.09 0.06 0.04 0.03 0.02 0.01 0.01 0.01 0.02 0.03 0.02 0.01 0.01 0.01 0.01 0.01 0.01 0.01 0.01
0.01 0.01 0.01 0.01 0.01 0.01 0.01 0.00 0.00 0.00 0.00 0.00 0.00 0.00 0.00 0.00 0.00 0.00 0.01 0.00 0.01 0.01 0.02 0.03 0.03 0.07 0.10 0.13 0.13 0.12 0.11 0.08 0.05 0.03 0.02 0.02 0.02 0.02 0.02 0.02 0.02 0.02 0.01 0.01 0.01 0.01 0.01 0.01 0.01
0.01 0.01 0.02 0.01 0.01 0.01 0.01 0.01 0.00 0.00 0.00 0.00 0.00 0.00 0.00 0.00 0.00 0.01 0.01 0.00 0.00 0.01 0.01 0.02 0.02 0.04 0.10 0.14 0.14 0.11 0.09 0.07 0.05 0.04 0.02 0.02 0.03 0.03 0.03 0.02 0.02 0.03 0.02 0.02 0.01 0.01 0.01 0.01 0.01
0.01 0.01 0.01 0.02 0.01 0.01 0.01 0.00 0.00 0.00 0.00 0.00 0.00 0.00 0.00 0.01 0.01 0.01 0.01 0.01 0.01 0.01 0.00 0.01 0.02 0.05 0.09 0.14 0.14 0.11 0.09 0.06 0.04 0.03 0.03 0.03 0.04 0.05 0.05 0.03 0.02 0.03 0.03 0.03 0.02 0.02 0.02 0.02 0.02
0.02 0.02 0.01 0.02 0.01 0.01 0.01 0.01 0.00 0.00 0.00 0.00 0.00 0.00 0.00 0.00 0.01 0.01 0.01 0.01 0.01 0.01 0.01 0.00 0.01 0.04 0.09 0.15 0.17 0.15 0.12 0.08 0.05 0.03 0.02 0.03 0.03 0.04 0.06 0.05 0.04 0.03 0.02 0.03 0.03 0.02 0.01 0.02 0.02
0.03 0.02 0.01 0.02 0.02 0.02 0.01 0.02 0.01 0.00 0.00 0.00 0.00 0.00 0.00 0.00 0.00 0.01 0.01 0.01 0.02 0.01 0.01 0.00 0.01 0.04 0.07 0.13 0.19 0.17 0.14 0.08 0.04 0.03 0.03 0.03 0.03 0.03 0.04 0.04 0.04 0.03 0.03 0.03 0.04 0.03 0.02 0.02 0.02
0.01 0.01 0.01 0.01 0.02 0.02 0.02 0.02 0.01 0.00 0.00 0.00 0.00 0.00 0.00 0.00 0.00 0.00 0.01 0.02 0.03 0.02 0.01 0.01 0.02 0.04 0.07 0.10 0.15 0.16 0.15 0.10 0.06 0.04 0.04 0.03 0.03 0.03 0.04 0.05 0.05 0.03 0.02 0.03 0.03 0.03 0.03 0.03 0.04
0.01 0.01 0.01 0.02 0.03 0.02 0.01 0.02 0.01 0.01 0.00 0.00 0.00 0.00 0.00 0.00 0.00 0.00 0.01 0.03 0.04 0.04 0.02 0.02 0.03 0.05 0.08 0.09 0.12 0.14 0.13 0.10 0.07 0.04 0.04 0.03 0.03 0.03 0.04 0.05 0.05 0.04 0.03 0.02 0.02 0.02 0.03 0.03 0.03
0.01 0.02 0.03 0.04 0.04 0.02 0.00 0.01 0.01 0.00 0.00 0.00 0.01 0.01 0.01 0.01 0.01 0.01 0.03 0.03 0.04 0.03 0.02 0.03 0.04 0.06 0.09 0.10 0.11 0.12 0.11 0.11 0.08 0.06 0.05 0.03 0.02 0.02 0.02 0.04 0.04 0.04 0.03 0.02 0.02 0.02 0.03 0.03 0.03
0.01 0.02 0.03 0.03 0.02 0.01 0.01 0.01 0.01 0.00 0.00 0.00 0.01 0.01 0.02 0.01 0.01 0.02 0.03 0.04 0.04 0.03 0.02 0.03 0.04 0.06 0.11 0.12 0.11 0.10 0.09 0.10 0.10 0.08 0.06 0.04 0.03 0.02 0.02 0.04 0.04 0.04 0.03 0.02 0.03 0.02 0.02 0.02 0.02
0.01 0.01 0.02 0.03 0.02 0.01 0.01 0.01 0.01 0.00 0.00 0.00 0.01 0.01 0.01 0.01 0.02 0.02 0.04 0.04 0.03 0.02 0.02 0.03 0.04 0.06 0.11 0.13 0.12 0.09 0.08 0.07 0.08 0.07 0.07 0.05 0.04 0.04 0.03 0.03 0.04 0.04 0.03 0.03 0.03 0.03 0.03 0.03 0.03
0.00 0.01 0.02 0.04 0.04 0.02 0.02 0.01 0.01 0.00 0.00 0.01 0.01 0.01 0.02 0.03 0.03 0.05 0.05 0.04 0.03 0.03 0.03 0.03 0.04 0.06 0.10 0.15 0.14 0.10 0.08 0.07 0.07 0.06 0.06 0.06 0.05 0.05 0.04 0.04 0.05 0.03 0.02 0.02 0.02 0.03 0.03 0.03 0.03
0.01 0.01 0.02 0.03 0.03 0.03 0.03 0.01 0.01 0.01 0.01 0.01 0.01 0.01 0.02 0.04 0.04 0.10 0.11 0.05 0.04 0.03 0.03 0.04 0.05 0.07 0.10 0.14 0.14 0.11 0.09 0.07 0.06 0.06 0.06 0.05 0.06 0.07 0.05 0.05 0.05 0.04 0.03 0.02 0.02 0.02 0.02 0.02 0.03
0.01 0.01 0.02 0.03 0.02 0.02 0.02 0.01 0.01 0.01 0.01 0.01 0.01 0.01 0.02 0.03 0.04 0.06 0.07 0.05 0.04 0.04 0.04 0.06 0.08 0.08 0.11 0.13 0.15 0.13 0.10 0.08 0.08 0.07 0.06 0.06 0.07 0.08 0.08 0.07 0.05 0.04 0.04 0.03 0.02 0.02 0.02 0.02 0.02
MSLP
1008.47 1008.88 1009.19 1009.30 1009.11 1008.60 1007.81 1006.83 1005.79 1004.82 1004.03 1003.47 1003.14 1002.98 1002.91 1002.85 1002.71 1002.49 1002.20 1001.90 1001.66 1001.55 1001.61 1001.83 1002.18 1002.59 1003.00 1003.34 1003.60 1003.80 1003.98 1004.20 1004.51 1004.95 1005.49 1006.12 1006.76 1007.36 1007.87 1008.27 1008.58 1008.82 1009.06 1009.33 1009.67 1010.08 1010.54 1011.02 1011.47
1008.61 1008.94 1009.12 1009.02 1008.60 1007.87 1006.87 1005.75 1004.62 1003.65 1002.91 1002.45 1002.26 1002.24 1002.31 1002.35 1002.31 1002.16 1001.92 1001.67 1001.48 1001.42 1001.54 1001.82 1002.23 1002.70 1003.14 1003.51 1003.79 1003.99 1004.15 1004.35 1004.64 1005.04 1005.55 1006.13 1006.74 1007.31 1007.80 1008.18 1008.48 1008.72 1008.97 1009.25 1009.61 1010.04 1010.52 1011.02 1011.49
1008.76 1008.99 1008.98 1008.67 1008.03 1007.08 1005.93 1004.70 1003.54 1002.60 1001.95 1001.61 1001.54 1001.65 1001.82 1001.95 1001.97 1001.86 1001.65 1001.43 1001.28 1001.28 1001.45 1001.80 1002.28 1002.81 1003.31 1003.73 1004.03 1004.24 1004.41 1004.59 1004.84 1005.19 1005.65 1006.18 1006.73 1007.26 1007.72 1008.08 1008.38 1008.63 1008.89 1009.20 1009.58 1010.03 1010.53 1011.04 1011.52
1008.91 1008.99 1008.81 1008.30 1007.46 1006.35 1005.09 1003.82 1002.68 1001.81 1001.27 1001.05 1001.09 1001.30 1001.54 1001.71 1001.76 1001.66 1001.47 1001.27 1001.16 1001.20 1001.44 1001.85 1002.40 1002.99 1003.54 1004.00 1004.33 1004.56 1004.73 1004.89 1005.10 1005.41 1005.82 1006.29 1006.79 1007.28 1007.71 1008.07 1008.37 1008.64 1008.92 1009.25 1009.64 1010.10 1010.60 1011.11 1011.60
1009.00 1008.95 1008.60 1007.92 1006.95 1005.75 1004.45 1003.20 1002.14 1001.37 1000.95 1000.84 1000.97 1001.24 1001.51 1001.69 1001.73 1001.63 1001.45 1001.27 1001.19 1001.27 1001.55 1002.02 1002.61 1003.24 1003.82 1004.31 1004.67 1004.91 1005.07 1005.23 1005.43 1005.71 1006.07 1006.50 1006.97 1007.42 1007.84 1008.19 1008.50 1008.78 1009.08 1009.42 1009.82 1010.26 1010.75 1011.24 1011.70
1009.00 1008.82 1008.35 1007.58 1006.55 1005.34 1004.09 1002.93 1001.98 1001.35 1001.04 1001.02 1001.21 1001.49 1001.75 1001.90 1001.91 1001.80 1001.61 1001.45 1001.39 1001.51 1001.82 1002.31 1002.91 1003.55 1004.14 1004.63 1004.99 1005.24 1005.42 1005.58 1005.78 1006.05 1006.41 1006.82 1007.27 1007.71 1008.11 1008.47 1008.78 1009.07 1009.37 1009.70 1010.08 1010.49 1010.93 1011.37 1011.79
1008.85 1008.59 1008.06 1007.27 1006.27 1005.15 1004.02 1003.01 1002.23 1001.73 1001.53 1001.57 1001.76 1002.01 1002.22 1002.32 1002.27 1002.13 1001.93 1001.78 1001.74 1001.88 1002.20 1002.69 1003.28 1003.89 1004.45 1004.92 1005.27 1005.53 1005.72 1005.91 1006.14 1006.43 1006.80 1007.22 1007.67 1008.10 1008.51 1008.86 1009.18 1009.46 1009.74 1010.04 1010.37 1010.73 1011.10 1011.48 1011.84
1008.57 1008.27 1007.75 1007.01 1006.12 1005.15 1004.22 1003.41 1002.80 1002.45 1002.33 1002.39 1002.55 1002.73 1002.84 1002.85 1002.73 1002.54 1002.33 1002.19 1002.16 1002.31 1002.62 1003.08 1003.62 1004.18 1004.70 1005.13 1005.46 1005.72 1005.94 1006.17 1006.44 1006.78 1007.19 1007.64 1008.10 1008.55 1008.95 1009.30 1009.60 1009.86 1010.11 1010.36 1010.63 1010.91 1011.21 1011.50 1011.80
1008.19 1007.90 1007.43 1006.81 1006.08 1005.33 1004.62 1004.02 1003.60 1003.37 1003.30 1003.34 1003.43 1003.50 1003.50 1003.39 1003.19 1002.95 1002.72 1002.57 1002.55 1002.70 1002.99 1003.41 1003.89 1004.38 1004.84 1005.22 1005.54 1005.81 1006.06 1006.34 1006.67 1007.07 1007.53 1008.01 1008.50 1008.96 1009.36 1009.70 1009.98 1010.21 1010.42 1010.61 1010.81 1011.01 1011.23 1011.45 1011.68
1007.79 1007.53 1007.15 1006.68 1006.15 1005.62 1005.14 1004.75 1004.48 1004.34 1004.29 1004.29 1004.28 1004.21 1004.07 1003.84 1003.55 1003.25 1003.00 1002.85 1002.84 1002.97 1003.24 1003.61 1004.04 1004.46 1004.85 1005.20 1005.50 1005.78 1006.08 1006.41 1006.81 1007.27 1007.77 1008.30 1008.81 1009.27 1009.68 1010.00 1010.26 1010.46 1010.62 1010.77 1010.91 1011.04 1011.19 1011.35 1011.51
1007.45 1007.24 1006.96 1006.64 1006.29 1005.96 1005.68 1005.46 1005.32 1005.23 1005.16 1005.09 1004.96 1004.75 1004.47 1004.12 1003.75 1003.40 1003.13 1002.98 1002.97 1003.09 1003.34 1003.67 1004.04 1004.41 1004.76 1005.07 1005.37 1005.68 1006.01 1006.40 1006.85 1007.36 1007.91 1008.46 1008.98 1009.45 1009.85 1010.17 1010.41 1010.60 1010.73 1010.85 1010.94 1011.04 1011.14 1011.25 1011.37
1007.27 1007.10 1006.91 1006.71 1006.50 1006.32 1006.18 1006.07 1005.99 1005.91 1005.81 1005.64 1005.40 1005.07 1004.66 1004.22 1003.78 1003.39 1003.11 1002.96 1002.95 1003.08 1003.31 1003.61 1003.94 1004.27 1004.59 1004.89 1005.20 1005.53 1005.90 1006.33 1006.82 1007.37 1007.93 1008.50 1009.03 1009.50 1009.89 1010.21 1010.46 1010.64 1010.78 1010.89 1010.98 1011.05 1011.13 1011.22 1011.32
1007.30 1007.17 1007.03 1006.89 1006.76 1006.66 1006.58 1006.51 1006.45 1006.35 1006.18 1005.94 1005.59 1005.17 1004.68 1004.17 1003.68 1003.28 1003.00 1002.85 1002.85 1002.97 1003.19 1003.47 1003.78 1004.09 1004.40 1004.71 1005.03 1005.38 1005.78 1006.24 1006.76 1007.31 1007.88 1008.44 1008.97 1009.44 1009.84 1010.17 1010.43 1010.64 1010.81 1010.94 1011.05 1011.14 1011.22 1011.30 1011.39
1007.57 1007.45 1007.31 1007.18 1007.06 1006.95 1006.87 1006.79 1006.69 1006.54 1006.32 1006.01 1005.61 1005.13 1004.60 1004.07 1003.58 1003.18 1002.90 1002.76 1002.75 1002.86 1003.06 1003.32 1003.61 1003.92 1004.23 1004.55 1004.89 1005.27 1005.69 1006.16 1006.68 1007.23 1007.78 1008.33 1008.84 1009.31 1009.73 1010.09 1010.39 1010.65 1010.87 1011.05 1011.20 1011.32 1011.42 1011.50 1011.59
1008.03 1007.89 1007.72 1007.55 1007.38 1007.22 1007.08 1006.94 1006.78 1006.58 1006.32 1005.98 1005.56 1005.09 1004.57 1004.06 1003.59 1003.21 1002.93 1002.78 1002.75 1002.82 1002.99 1003.21 1003.48 1003.78 1004.09 1004.43 1004.79 1005.19 1005.63 1006.10 1006.61 1007.14 1007.68 1008.20 1008.71 1009.18 1009.62 1010.01 1010.37 1010.69 1010.97 1011.21 1011.41 1011.57 1011.70 1011.80 1011.88
1008.57 1008.41 1008.20 1007.97 1007.73 1007.49 1007.27 1007.05 1006.84 1006.60 1006.32 1005.99 1005.60 1005.17 1004.71 1004.26 1003.83 1003.46 1003.18 1003.00 1002.91 1002.92 1003.02 1003.18 1003.41 1003.68 1003.98 1004.33 1004.71 1005.12 1005.57 1006.05 1006.55 1007.06 1007.58 1008.09 1008.59 1009.07 1009.54 1009.98 1010.39 1010.76 1011.10 1011.40 1011.65 1011.85 1012.00 1012.11 1012.19
1009.11 1008.93 1008.69 1008.41 1008.11 1007.80 1007.50 1007.23 1006.96 1006.70 1006.43 1006.15 1005.83 1005.48 1005.11 1004.73 1004.35 1004.00 1003.69 1003.44 1003.27 1003.17 1003.15 1003.22 1003.36 1003.58 1003.87 1004.21 1004.60 1005.03 1005.49 1005.97 1006.47 1006.98 1007.49 1007.99 1008.50 1009.00 1009.50 1009.98 1010.44 1010.86 1011.25 1011.59 1011.87 1012.10 1012.27 1012.39 1012.46
1009.56 1009.40 1009.16 1008.86 1008.53 1008.19 1007.85 1007.53 1007.24 1006.99 1006.75 1006.53 1006.30 1006.05 1005.78 1005.48 1005.14 1004.79 1004.43 1004.09 1003.79 1003.54 1003.38 1003.31 1003.34 1003.47 1003.71 1004.03 1004.42 1004.86 1005.34 1005.84 1006.35 1006.87 1007.39 1007.91 1008.44 1008.97 1009.49 1010.01 1010.50 1010.96 1011.37 1011.73 1012.03 1012.27 1012.45 1012.57 1012.65
1009.87 1009.77 1009.58 1009.33 1009.02 1008.68 1008.33 1008.01 1007.72 1007.48 1007.28 1007.12 1006.98 1006.83 1006.65 1006.42 1006.12 1005.75 1005.33 1004.87 1004.42 1004.00 1003.65 1003.41 1003.30 1003.32 1003.48 1003.77 1004.15 1004.60 1005.11 1005.64 1006.18 1006.73 1007.28 1007.83 1008.39 1008.95 1009.50 1010.04 1010.56 1011.04 1011.46 1011.82 1012.11 1012.35 1012.53 1012.65 1012.73
1010.08 1010.07 1009.99 1009.82 1009.58 1009.28 1008.96 1008.64 1008.36 1008.13 1007.96 1007.84 1007.76 1007.69 1007.58 1007.40 1007.13 1006.75 1006.26 1005.69 1005.08 1004.48 1003.94 1003.51 1003.24 1003.14 1003.21 1003.44 1003.81 1004.27 1004.80 1005.37 1005.95 1006.54 1007.14 1007.73 1008.33 1008.92 1009.51 1010.07 1010.60 1011.08 1011.49 1011.84 1012.12 1012.35 1012.52 1012.65 1012.74
1010.24 1010.36 1010.41 1010.37 1010.22 1010.00 1009.71 1009.39 1009.09 1008.84 1008.66 1008.55 1008.49 1008.46 1008.40 1008.27 1008.02 1007.63 1007.09 1006.43 1005.69 1004.93 1004.22 1003.62 1003.19 1002.96 1002.94 1003.10 1003.44 1003.90 1004.45 1005.05 1005.68 1006.32 1006.97 1007.61 1008.25 1008.88 1009.49 1010.08 1010.61 1011.09 1011.49 1011.82 1012.09 1012.30 1012.47 1012.61 1012.72
1010.45 1010.71 1010.90 1010.98 1010.94 1010.77 1010.49 1010.15 1009.80 1009.48 1009.24 1009.08 1009.01 1008.98 1008.95 1008.86 1008.64 1008.27 1007.72 1007.02 1006.20 1005.34 1004.50 1003.76 1003.20 1002.85 1002.73 1002.83 1003.12 1003.56 1004.12 1004.74 1005.41 1006.09 1006.77 1007.46 1008.14 1008.80 1009.45 1010.05 1010.59 1011.07 1011.47 1011.80 1012.06 1012.27 1012.43 1012.58 1012.71
1010.78 1011.16 1011.47 1011.66 1011.68 1011.54 1011.24 1010.83 1010.37 1009.94 1009.58 1009.34 1009.21 1009.16 1009.14 1009.09 1008.93 1008.62 1008.12 1007.43 1006.61 1005.70 1004.80 1003.98 1003.33 1002.88 1002.67 1002.69 1002.93 1003.33 1003.87 1004.49 1005.16 1005.86 1006.57 1007.29 1007.99 1008.69 1009.36 1009.98 1010.55 1011.04 1011.45 1011.79 1012.05 1012.27 1012.44 1012.60 1012.76
1011.27 1011.73 1012.12 1012.36 1012.41 1012.24 1011.86 1011.34 1010.73 1010.14 1009.64 1009.27 1009.06 1008.97 1008.97 1008.97 1008.90 1008.69 1008.29 1007.70 1006.94 1006.07 1005.17 1004.32 1003.61 1003.10 1002.82 1002.76 1002.93 1003.27 1003.76 1004.34 1004.99 1005.67 1006.38 1007.10 1007.82 1008.53 1009.22 1009.87 1010.47 1010.99 1011.43 1011.79 1012.08 1012.31 1012.50 1012.68 1012.85
1011.89 1012.39 1012.80 1013.04 1013.04 1012.79 1012.30 1011.62 1010.85 1010.08 1009.42 1008.92 1008.62 1008.51 1008.53 1008.60 1008.65 1008.58 1008.33 1007.88 1007.24 1006.47 1005.63 1004.81 1004.09 1003.53 1003.19 1003.06 1003.14 1003.41 1003.81 1004.33 1004.91 1005.55 1006.22 1006.91 1007.62 1008.34 1009.04 1009.72 1010.35 1010.91 1011.40 1011.80 1012.12 1012.38 1012.59 1012.78 1012.95
1012.57 1013.04 1013.42 1013.60 1013.52 1013.15 1012.52 1011.69 1010.75 1009.82 1009.01 1008.40 1008.04 1007.91 1007.97 1008.14 1008.31 1008.40 1008.33 1008.05 1007.58 1006.94 1006.19 1005.43 1004.73 1004.16 1003.77 1003.57 1003.57 1003.73 1004.04 1004.45 1004.95 1005.50 1006.10 1006.74 1007.42 1008.12 1008.82 1009.52 1010.18 1010.79 1011.32 1011.77 1012.14 1012.43 1012.66 1012.86 1013.03
1013.20 1013.61 1013.89 1013.97 1013.78 1013.29 1012.52 1011.55 1010.49 1009.44 1008.55 1007.88 1007.48 1007.37 1007.49 1007.75 1008.06 1008.30 1008.40 1008.29 1007.98 1007.48 1006.85 1006.16 1005.50 1004.93 1004.51 1004.25 1004.15 1004.22 1004.41 1004.71 1005.09 1005.54 1006.05 1006.61 1007.23 1007.89 1008.58 1009.28 1009.97 1010.61 1011.19 1011.69 1012.09 1012.42 1012.67 1012.87 1013.04
1013.68 1013.97 1014.14 1014.10 1013.79 1013.19 1012.33 1011.28 1010.16 1009.08 1008.16 1007.49 1007.12 1007.05 1007.24 1007.59 1008.00 1008.37 1008.60 1008.64 1008.46 1008.08 1007.55 1006.94 1006.32 1005.76 1005.32 1005.00 1004.84 1004.80 1004.89 1005.07 1005.34 1005.67 1006.07 1006.54 1007.08 1007.68 1008.34 1009.02 1009.71 1010.37 1010.98 1011.51 1011.95 1012.31 1012.58 1012.79 1012.95
1013.91 1014.08 1014.12 1013.95 1013.54 1012.87 1011.98 1010.94 1009.84 1008.81 1007.96 1007.37 1007.07 1007.07 1007.33 1007.75 1008.23 1008.67 1008.98 1009.09 1009.00 1008.70 1008.24 1007.69 1007.11 1006.57 1006.11 1005.77 1005.54 1005.44 1005.43 1005.51 1005.67 1005.89 1006.18 1006.55 1007.00 1007.52 1008.12 1008.76 1009.43 1010.08 1010.70 1011.25 1011.71 1012.08 1012.36 1012.58 1012.75
1013.89 1013.92 1013.83 1013.56 1013.09 1012.40 1011.54 1010.58 1009.60 1008.71 1007.99 1007.53 1007.35 1007.44 1007.75 1008.20 1008.70 1009.15 1009.47 1009.61 1009.54 1009.27 1008.85 1008.34 1007.79 1007.27 1006.82 1006.46 1006.21 1006.05 1005.98 1005.99 1006.05 1006.18 1006.37 1006.64 1006.99 1007.43 1007.94 1008.52 1009.14 1009.76 1010.36 1010.90 1011.36 1011.74 1012.04 1012.27 1012.45
Thickness
5713 5718 5722 5716 5701 5694 5701 5723 5740 5741 5745 5751 5753 5752 5746 5740 5734 5722 5737 5748 5747 5744 5740 5737 5735 5734 5733 5732 5731 5730 5728 5727 5726 5725 5724 5723 5722 5721 5720 5720 5719 5718 5717 5716 5716 5715 5714 5714 5713
5707 5713 5711 5702 5688 5683 5702 5723 5729 5734 5740 5746 5748 5747 5743 5737 5739 5735 5738 5743 5744 5741 5737 5734 5731 5730 5729 5728 5727 5726 5725 5724 5722 5721 5720 5719 5718 5717 5717 5716 5715 5714 5713 5713 5712 5711 5711 5710 5710
5703 5706 5697 5691 5687 5691 5705 5722 5725 5732 5738 5738 5737 5740 5736 5731 5734 5733 5736 5740 5740 5737 5733 5730 5728 5726 5725 5724 5723 5722 5721 5720 5719 5717 5716 5715 5714 5714 5713 5712 5711 5710 5709 5708 5708 5707 5706 5706 5706
5696 5692 5690 5683 5686 5704 5712 5717 5723 5723 5727 5731 5730 5726 5728 5731 5731 5732 5735 5735 5734 5732 5729 5726 5724 5722 5721 5720 5719 5718 5717 5716 5715 5714 5713 5711 5710 5709 5708 5708 5707 5706 5705 5704 5703 5703 5702 5702 5702
5688 5681 5674 5675 5687 5704 5713 5717 5719 5716 5718 5722 5722 5717 5715 5723 5728 5729 5729 5730 5728 5727 5725 5720 5719 5717 5716 5716 5714 5713 5712 5711 5710 5709 5708 5707 5705 5704 5704 5703 5702 5701 5700 5700 5699 5698 5698 5698 5697
5674 5674 5667 5672 5688 5701 5708 5712 5712 5711 5713 5717 5716 5710 5709 5716 5719 5721 5723 5724 5724 5722 5719 5715 5713 5712 5711 5710 5710 5708 5707 5706 5705 5704 5703 5701 5700 5699 5699 5698 5697 5697 5696 5695 5695 5694 5694 5693 5693
5664 5664 5665 5676 5684 5692 5700 5707 5704 5701 5703 5707 5712 5704 5704 5706 5712 5715 5716 5717 5717 5716 5713 5710 5707 5706 5706 5705 5704 5703 5702 5701 5700 5699 5698 5696 5695 5694 5694 5693 5692 5692 5691 5691 5690 5689 5689 5689 5688
5662 5658 5662 5672 5677 5683 5693 5698 5699 5695 5695 5704 5705 5697 5694 5698 5705 5707 5707 5708 5709 5708 5706 5704 5702 5701 5700 5699 5698 5697 5696 5695 5694 5693 5692 5691 5689 5689 5688 5688 5688 5687 5686 5686 5685 5684 5684 5684 5684
5656 5644 5652 5667 5671 5675 5682 5683 5687 5690 5689 5692 5694 5692 5693 5696 5697 5696 5696 5696 5698 5698 5698 5698 5696 5695 5694 5693 5692 5691 5690 5689 5687 5686 5685 5685 5684 5683 5683 5683 5682 5682 5681 5681 5680 5679 5679 5679 5679
5642 5636 5652 5663 5663 5665 5669 5671 5673 5674 5674 5677 5680 5683 5686 5687 5686 5685 5685 5685 5687 5688 5689 5690 5690 5689 5688 5687 5685 5685 5684 5683 5682 5680 5679 5679 5679 5678 5677 5677 5676 5676 5675 5675 5675 5674 5674 5674 5674
5639 5639 5649 5653 5653 5655 5655 5659 5663 5660 5660 5667 5669 5672 5674 5675 5675 5676 5678 5679 5680 5681 5682 5683 5683 5682 5681 5681 5679 5678 5678 5677 5676 5675 5674 5673 5673 5673 5672 5671 5670 5670 5669 5669 5669 5669 5669 5669 5669
5632 5637 5641 5641 5641 5641 5642 5646 5648 5651 5654 5662 5665 5667 5666 5665 5666 5667 5669 5672 5672 5673 5674 5675 5675 5674 5674 5674 5673 5672 5671 5671 5670 5670 5668 5668 5668 5667 5667 5666 5665 5664 5664 5663 5663 5664 5664 5665 5665
5622 5626 5630 5630 5630 5630 5632 5633 5636 5641 5649 5653 5657 5658 5657 5657 5659 5661 5662 5664 5665 5665 5666 5667 5667 5667 5667 5667 5666 5665 5665 5665 5665 5664 5663 5663 5662 5661 5661 5660 5659 5659 5659 5658 5658 5658 5659 5659 5659
5614 5616 5617 5619 5620 5621 5620 5623 5626 5635 5640 5642 5644 5645 5648 5649 5650 5652 5653 5654 5656 5657 5657 5658 5659 5659 5659 5659 5659 5658 5658 5658 5659 5658 5658 5657 5656 5655 5655 5654 5654 5653 5653 5653 5652 5653 5653 5653 5654
5602 5600 5605 5610 5611 5612 5608 5610 5620 5629 5630 5631 5633 5636 5639 5641 5642 5643 5645 5646 5647 5648 5649 5649 5650 5651 5651 5651 5651 5651 5651 5651 5652 5652 5651 5650 5650 5649 5648 5648 5647 5647 5647 5646 5646 5646 5646 5646 5647
5590 5588 5588 5603 5603 5602 5593 5596 5618 5622 5620 5620 5623 5626 5629 5631 5633 5635 5636 5637 5638 5639 5639 5640 5640 5641 5641 5642 5642 5643 5643 5644 5645 5645 5644 5644 5643 5642 5642 5641 5640 5640 5640 5640 5639 5639 5638 5638 5639
5576 5574 5581 5588 5594 5592 5585 5589 5606 5611 5610 5610 5613 5616 5618 5620 5622 5624 5626 5627 5628 5629 5629 5629 5629 5630 5632 5633 5633 5635 5635 5636 5637 5637 5637 5637 5637 5636 5635 5634 5634 5633 5632 5632 5632 5632 5631 5630 5630
5562 5566 5573 5576 5582 5579 5575 5582 5594 5598 5600 5601 5603 5606 5608 5609 5612 5614 5615 5616 5617 5618 5618 5618 5619 5619 5621 5622 5624 5625 5626 5628 5629 5629 5629 5629 5629 5629 5628 5627 5626 5626 5625 5624 5624 5624 5624 5623 5623
5556 5556 5558 5566 5569 5565 5566 5573 5584 5590 5590 5591 5592 5594 5597 5600 5603 5604 5605 5605 5606 5606 5607 5607 5608 5609 5611 5612 5614 5615 5616 5618 5620 5621 5622 5622 5622 5621 5620 5620 5619 5618 5618 5618 5617 5617 5616 5614 5614
5545 5543 5548 5553 5556 5554 5555 5564 5577 5583 5584 5584 5584 5585 5588 5590 5592 5593 5594 5594 5594 5595 5596 5597 5598 5600 5602 5604 5606 5608 5609 5610 5612 5613 5614 5615 5614 5614 5613 5612 5612 5611 5610 5610 5609 5609 5607 5607 5606
5536 5535 5537 5536 5539 5543 5542 5551 5568 5577 5578 5578 5579 5579 5579 5580 5580 5581 5582 5582 5582 5583 5585 5588 5589 5591 5593 5595 5596 5598 5599 5600 5602 5603 5605 5607 5607 5606 5606 5605 5604 5604 5604 5603 5602 5602 5601 5599 5599
5522 5532 5530 5526 5519 5521 5527 5520 5555 5564 5565 5568 5568 5568 5568 5569 5570 5570 5571 5571 5571 5573 5575 5577 5579 5581 5584 5585 5587 5589 5591 5592 5596 5596 5597 5598 5598 5598 5598 5598 5597 5597 5597 5596 5596 5595 5595 5593 5591
5517 5522 5519 5516 5511 5507 5515 5505 5534 5552 5552 5555 5558 5559 5558 5558 5558 5557 5558 5559 5560 5562 5564 5566 5568 5571 5574 5576 5579 5580 5581 5584 5587 5587 5588 5589 5589 5589 5590 5590 5591 5590 5590 5589 5588 5587 5587 5586 5585
5512 5510 5509 5507 5499 5493 5510 5505 5522 5537 5543 5546 5547 5546 5545 5546 5545 5545 5546 5547 5548 5549 5551 5554 5556 5560 5564 5566 5569 5571 5573 5575 5577 5578 5579 5580 5579 5580 5582 5582 5583 5583 5583 5582 5582 5581 5579 5579 5578
5501 5490 5485 5487 5487 5497 5517 5508 5517 5534 5536 5535 5532 5529 5529 5531 5531 5532 5533 5533 5535 5536 5539 5542 5545 5549 5553 5557 5560 5562 5564 5566 5568 5570 5571 5571 5571 5572 5574 5575 5575 5575 5576 5575 5574 5573 5572 5571 5570
5488 5486 5477 5477 5487 5498 5501 5498 5517 5526 5526 5525 5522 5519 5518 5518 5517 5518 5519 5520 5521 5524 5527 5530 5535 5539 5543 5547 5550 5553 5555 5557 5559 5560 5562 5563 5565 5566 5566 5566 5567 5568 5567 5567 5566 5565 5564 5563 5563
5482 5479 5481 5472 5472 5475 5492 5508 5515 5517 5515 5513 5510 5507 5505 5505 5506 5505 5506 5508 5509 5511 5514 5518 5523 5528 5532 5536 5539 5543 5545 5547 5549 5551 5552 5555 5556 5557 5557 5558 5559 5559 5559 5558 5558 5557 5556 5556 5555
5477 5475 5465 5460 5463 5473 5494 5503 5503 5498 5499 5499 5497 5494 5493 5494 5494 5494 5495 5496 5497 5499 5502 5507 5511 5515 5519 5523 5527 5531 5535 5537 5539 5540 5542 5544 5546 5548 5548 5549 5550 5551 5551 5551 5549 5548 5548 5547 5547
5464 5461 5459 5458 5460 5462 5472 5488 5496 5492 5492 5488 5486 5484 5483 5482 5482 5482 5483 5485 5486 5487 5490 5494 5498 5502 5506 5510 5514 5518 5522 5525 5528 5530 5532 5534 5536 5538 5540 5541 5542 5543 5543 5543 5542 5541 5540 5540 5539
5463 5461 5454 5447 5450 5454 5454 5470 5489 5484 5482 5478 5476 5475 5474 5473 5472 5471 5472 5473 5474 5476 5479 5482 5486 5490 5493 5498 5502 5506 5510 5513 5516 5519 5522 5525 5527 5529 5531 5533 5534 5535 5535 5535 5535 5534 5533 5533 5531